Flag for Congo Weather past 2 weeks in Pointe-Noire, Congo

81 °F

Broken clouds.

Feels Like: 85 °F
Forecast: 75 / 82 °F
Wind: 9 mph from Southwest

Location: Pointe Airport-Noire

Current Time: Oct 7, 2015 at 5:16:38 PM

Latest Report: Oct 7, 2015 at 4:00 PM

Visibility: N/A

Pressure: 29.83 "Hg

Humidity: 79%

Dew point: 73 °F

Location of Pointe-NoireLocation

Historic Weather in Pointe-Noire — Graph


Pointe-Noire temperature yesterday

Maximum temperature yesterday: 84 °F (at 4:00 PM)
Minimum temperature yesterday: 77 °F (at 1:00 AM)
Average temperature yesterday: 80 °F

Past Weeks' High & Low Weather Summary

High84 °F (Sep 27, 2:00 PM)94% (Sep 23, 3:00 AM)30.01 "Hg (Sep 23, 3:00 AM)
Low73 °F (Sep 23, 6:00 AM)62% (Sep 27, 11:00 AM)29.80 "Hg (Sep 26, 3:00 PM)
Average78 °F84%29.92 "Hg
* Reported Sep 22 4:00 PM — Oct 7 4:00 PM, Pointe-Noire, Weather by CustomWeather, © 2015

Note: Actual official high and low records may vary slightly from our data, if they occured in-between our weather recording intervals... More about our weather records


Pointe-Noire weather history for previous 24 hours

Time TempWeatherWind HumidityBarometerVisibility
4:00 PM
Wed, Oct 7
81 °FBroken clouds.9 mph79%29.83 "HgN/A
3:00 PM79 °FScattered clouds.14 mph84%29.86 "HgN/A
2:00 PM79 °FBroken clouds.14 mph84%29.89 "HgN/A
1:00 PM79 °FMore clouds than sun.12 mph84%29.92 "HgN/A
12:00 PM79 °FMore clouds than sun.14 mph84%29.95 "HgN/A
11:00 AM79 °FMore clouds than sun.9 mph84%29.98 "HgN/A
10:00 AM79 °FMore clouds than sun.5 mph84%30.01 "HgN/A
9:00 AM77 °FLight rain. Mostly cloudy.5 mph89%29.98 "Hg5 mi
8:00 AM77 °FMostly cloudy.5 mph89%29.95 "Hg4 mi
7:00 AM77 °FMostly cloudy.5 mph89%29.95 "Hg4 mi
6:00 AM77 °FMostly cloudy.7 mph89%29.95 "Hg4 mi
5:00 AM77 °FFog.7 mph94%29.92 "Hg2 mi
4:00 AM77 °FMostly cloudy.5 mph94%29.92 "Hg4 mi
3:00 AM77 °FDrizzle. Mostly cloudy.7 mph94%29.92 "Hg2 mi
2:00 AM77 °FMostly cloudy.No wind94%29.92 "Hg4 mi
1:00 AM79 °FMostly cloudy.No wind84%29.92 "Hg4 mi
12:00 AM79 °FMostly cloudy.5 mph84%29.92 "Hg4 mi
11:00 PM
Tue, Oct 6
79 °FMostly cloudy.9 mph84%29.92 "Hg4 mi
10:00 PM79 °FPassing clouds.7 mph89%29.92 "Hg5 mi
9:00 PM79 °FPartly cloudy.9 mph84%29.92 "Hg5 mi
8:00 PM81 °FPartly cloudy.9 mph79%29.92 "Hg5 mi
7:00 PM81 °FPassing clouds.12 mph79%29.89 "HgN/A
6:00 PM81 °FScattered clouds.12 mph79%29.86 "HgN/A
5:00 PM81 °FPassing clouds.12 mph79%29.86 "HgN/A
Weather by CustomWeather, © 2015

See weather overviewHow to use our weather pages